SCP
-0 0 0 0 0 0 0 0 0 0 0 0 0 0 0 0 0 0 0 0 0 0 0 0 0 0 0 0 0 0 0 0 0 0 0 0 0 0 0 0 0 0 0 -0 -1
-0 -0 0 0 0 0 0 0 0 0 0 0 0 0 0 0 0 0 -0 -0 -0 -0 0 0 0 0 0 0 0 0 0 0 0 0 0 0 0 0 0 0 0 0 0 0 -1
-0 -0 0 0 0 0 0 0 0 0 0 0 0 0 0 -0 0 0 -0 -0 -0 -0 0 0 0 0 0 0 0 0 0 0 0 0 0 0 0 0 0 0 0 0 0 0 0
-0 0 0 0 0 0 0 0 0 0 0 0 0 0 0 -0 0 -0 0 0 -0 -0 -0 0 0 0 0 0 0 0 0 0 0 0 0 0 0 0 0 0 0 0 0 0 0
-0 0 0 0 0 0 0 0 0 0 0 0 0 0 0 0 -0 -0 0 0 0 0 -0 -0 -0 0 0 0 0 0 0 0 0 0 0 0 0 0 0 0 0 0 0 0 0
0 0 0 0 0 0 0 0 0 0 0 0 0 0 0 0 0 0 0 0 0 0 0 0 -0 -0 0 0 0 0 0 0 0 0 0 0 0 0 0 0 0 0 0 0 0
0 0 0 0 0 0 0 0 0 0 0 0 0 0 0 0 0 0 0 0 0 0 0 0 0 0 0 0 0 0 0 0 0 0 0 0 0 0 0 0 0 0 0 0 0
0 0 0 0 0 0 0 0 0 0 0 0 0 0 0 0 0 0 0 0 0 0 0 0 0 0 0 0 0 0 0 0 0 0 0 0 0 0 -0 0 0 0 0 0 0
0 0 0 0 0 0 0 0 0 0 0 0 0 0 0 0 0 0 0 0 0 0 0 0 0 0 0 -0 0 0 0 0 0 0 0 0 0 -0 0 0 0 0 0 0 0
0 0 0 0 0 0 0 0 0 0 0 0 0 0 0 0 0 0 0 0 0 0 0 0 0 0 0 0 -0 0 -0 -0 0 0 0 0 0 0 0 0 0 0 0 0 0
0 0 0 0 0 0 0 0 0 0 0 0 0 0 0 0 0 0 0 0 0 0 0 0 0 0 0 0 0 -0 0 -0 -0 0 0 0 0 0 0 0 0 0 0 0 0
0 0 0 0 0 0 0 0 0 0 0 0 0 0 0 0 0 0 0 0 0 0 0 0 0 0 0 0 0 0 0 0 0 0 0 0 0 0 0 0 0 0 0 0 0
0 0 0 0 0 0 0 0 0 0 0 0 0 0 0 0 0 0 0 0 0 0 0 0 0 0 0 0 0 0 -0 0 0 0 0 0 0 0 0 0 0 0 0 0 0
0 0 0 0 0 0 0 0 0 0 0 0 0 0 0 -0 0 0 0 0 0 0 0 0 -0 0 0 0 0 0 0 -0 0 0 0 0 0 0 0 0 0 0 0 0 0
0 0 0 0 0 0 0 0 0 0 0 0 0 0 0 0 0 0 0 0 0 0 0 0 0 0 0 0 0 0 0 -0 -0 0 0 0 0 0 0 0 0 0 0 0 0
0 0 0 0 0 0 0 0 0 0 0 0 0 0 -0 0 0 0 0 0 0 0 0 -0 0 0 0 0 0 0 0 0 -0 0 0 0 0 0 0 0 0 0 0 0 0
0 0 0 0 0 0 0 0 0 0 0 0 0 0 0 0 0 0 0 0 0 0 0 -0 0 0 0 0 0 0 0 0 0 0 0 0 0 0 0 0 0 0 0 0 0
0 0 0 0 0 0 0 0 0 0 0 0 0 0 0 0 0 0 0 0 0 0 0 0 0 0 0 0 0 -0 0 0 0 0 0 0 0 0 0 0 0 0 0 0 0
0 0 0 0 0 0 0 0 0 0 0 0 0 0 0 0 0 0 0 0 0 0 0 0 0 0 0 0 0 0 -0 -0 0 0 0 0 0 0 0 0 0 0 0 0 0
0 0 0 0 0 0 0 0 0 0 0 0 0 -0 -0 -0 0 0 0 0 0 0 0 0 0 0 0 0 0 0 0 0 0 0 -0 0 0 0 -0 0 0 0 0 0 0
0 0 0 0 0 0 0 0 0 0 0 0 0 0 -0 0 0 0 0 0 0 0 0 0 0 0 0 0 -0 0 0 -0 0 0 -0 0 0 0 0 0 0 0 0 0 0
0 0 0 0 0 0 0 0 0 0 0 0 0 0 0 0 0 0 0 0 0 0 0 0 0 0 0 0 0 -0 0 -0 0 0 0 0 0 0 0 0 0 0 0 0 0
0 0 0 0 0 0 0 0 0 0 0 0 0 0 0 0 0 0 0 0 0 0 0 0 0 0 0 0 0 0 0 -0 -0 0 0 0 0 1 1 0 0 0 0 0 0
0 0 0 0 0 0 0 0 0 0 0 0 0 0 0 0 0 0 0 0 0 0 0 0 0 0 0 0 -0 0 -0 -0 -0 0 0 0 0 0 2 0 1 1 0 0 1
0 0 0 0 0 0 0 0 0 0 0 0 0 0 0 0 0 0 0 0 0 0 0 0 0 -0 -0 -0 -0 -0 -0 -0 -0 -0 0 -0 0 0 1 1 2 0 0 0 1
0 0 0 0 0 0 0 0 0 0 0 0 0 -0 0 0 0 -0 0 0 0 0 0 0 0 0 0 -0 -0 -0 0 -0 -0 -0 -0 -0 0 0 0 0 2 0 1 1 0
0 0 0 0 0 0 0 0 0 0 0 -0 -0 -0 -0 0 0 -0 0 0 0 0 0 0 0 0 0 -0 -0 0 -0 -0 0 0 0 0 0 0 0 1 1 1 1 0 0
Wind_Speed_500mb
46 43 43 43 43 42 38 33 27 24 23 27 33 35 36 37 40 26 17 7 5 8 14 14 16 15 16 25 24 25 19 33 42 36 28 19 24 38 22 35 29 28 69 14 17
49 47 48 47 47 41 30 24 20 20 22 28 35 33 35 34 20 24 24 22 11 22 25 26 16 9 11 13 25 26 28 44 15 30 25 37 23 18 19 33 47 39 36 28 10
55 54 54 51 48 35 27 22 20 22 26 33 36 35 40 29 11 9 17 19 19 24 25 20 15 5 18 11 25 27 42 33 19 38 36 40 29 25 28 32 29 39 36 18 15
61 60 60 57 49 32 23 19 21 25 31 35 33 33 31 15 6 10 15 18 14 17 20 13 7 12 9 24 20 27 35 48 22 46 21 33 27 22 48 47 24 39 33 32 30
66 66 64 59 46 31 20 19 23 29 37 36 28 29 22 5 4 5 8 16 17 15 13 6 10 11 17 11 25 41 34 35 38 63 40 45 41 32 36 36 45 49 52 46 41
70 71 68 61 43 28 14 20 26 33 38 31 26 29 15 2 14 18 18 20 19 20 14 12 12 16 13 15 24 18 24 37 58 45 28 44 49 43 30 52 52 50 54 54 46
72 72 70 64 42 25 15 22 29 37 36 24 19 26 15 8 14 26 27 25 21 22 23 22 14 20 11 14 22 17 24 30 37 35 39 31 46 62 51 46 32 36 37 38 40
75 72 71 64 38 27 20 27 37 36 33 15 22 23 15 12 13 35 34 29 20 23 25 22 17 24 23 19 16 17 19 24 18 36 25 39 65 18 46 63 74 73 69 56 52
81 75 73 61 34 33 20 28 32 35 12 14 25 13 14 6 15 33 38 30 27 26 21 15 10 14 10 21 22 21 29 27 21 24 34 42 42 28 41 37 57 59 63 64 59
85 79 75 56 27 28 16 32 25 23 13 23 11 9 10 13 27 39 41 29 27 17 6 15 13 13 14 18 30 28 32 27 22 6 31 44 44 22 16 10 41 39 44 47 52
84 83 76 46 24 15 17 23 20 8 18 26 30 22 41 20 24 45 37 23 19 12 16 12 15 27 40 40 38 35 34 35 20 17 17 27 32 36 41 44 39 32 45 37 39
84 83 71 30 20 10 17 13 14 21 26 43 44 41 38 32 23 49 11 8 13 26 13 12 34 38 36 38 40 40 39 42 36 34 24 30 27 28 27 34 51 47 40 43 47
84 81 62 19 15 12 19 14 24 31 12 20 7 9 3 11 40 32 11 17 20 30 30 31 34 14 23 35 38 41 43 38 35 28 35 32 46 40 34 37 45 52 51 45 43
84 80 52 14 6 17 13 24 36 23 7 8 7 2 5 44 13 20 33 14 8 24 21 26 25 23 32 36 40 42 34 33 32 27 29 16 17 17 32 34 35 44 50 54 40
84 72 38 6 14 18 28 38 20 3 10 19 6 7 46 10 39 5 9 9 29 30 15 15 19 26 25 38 33 34 25 33 33 29 28 32 16 29 19 38 41 40 57 57 43
79 58 27 15 21 31 38 26 2 4 7 11 15 35 45 50 7 13 13 17 16 13 18 41 29 20 29 12 25 16 19 30 28 24 23 36 31 23 27 38 44 43 45 51 43
83 40 19 23 32 31 31 6 5 4 17 11 21 31 47 12 24 18 25 23 13 9 5 22 14 11 26 15 7 27 19 10 15 16 20 27 25 37 21 21 21 36 41 44 43
84 33 13 33 40 32 17 1 4 6 9 26 25 42 10 20 17 20 21 29 14 14 9 8 4 14 20 25 11 35 28 10 14 17 29 24 22 34 52 41 25 15 43 44 47
75 13 13 38 36 20 6 3 5 8 15 21 39 10 9 15 17 22 28 19 7 9 6 7 11 7 14 15 26 19 26 28 11 21 19 22 45 29 24 33 27 34 28 46 56
65 7 23 42 26 14 5 5 5 11 18 16 11 7 27 36 24 17 18 7 8 10 13 5 14 8 7 5 23 20 21 12 10 11 22 23 50 29 29 39 40 29 27 42 50
43 7 28 42 16 19 6 7 10 13 18 11 12 15 20 20 7 24 13 21 6 5 6 7 11 5 4 12 24 17 24 15 13 12 17 19 18 36 32 11 40 39 38 27 40
30 5 34 40 13 7 6 16 14 12 20 10 15 19 19 25 14 17 14 13 4 8 8 12 8 11 18 2 16 30 29 29 13 23 12 15 6 4 42 29 18 33 42 18 36
27 12 20 33 8 9 13 8 9 12 23 9 11 9 20 14 15 17 26 10 17 12 9 3 7 9 7 8 15 10 24 33 21 9 24 16 2 15 10 24 22 21 20 28 48
18 9 12 20 11 6 13 8 14 25 21 15 23 21 19 18 28 17 34 19 14 24 37 19 11 21 22 5 4 7 23 40 37 15 19 17 24 18 14 17 13 11 24 45 60
20 6 6 10 8 18 9 7 14 20 11 19 10 16 33 14 36 18 34 44 28 28 4 4 10 20 35 36 25 18 8 31 35 35 16 6 25 22 26 19 8 24 48 58 63
11 12 11 13 17 17 5 5 15 23 10 16 14 42 44 22 34 52 38 44 11 4 3 4 6 4 14 26 28 20 22 20 34 32 21 19 21 11 29 36 23 43 57 63 64
20 13 5 9 9 8 5 12 19 31 16 35 38 36 41 36 56 77 68 53 23 9 5 5 5 4 6 14 15 13 30 28 22 26 20 15 5 15 11 19 17 43 53 57 69
Wind_Direction_500mb
3 356 351 346 342 339 336 333 336 340 346 348 343 340 339 333 332 350 11 29 92 331 4 344 283 239 219 214 202 193 229 236 225 223 218 200 211 212 219 219 211 226 242 245 319
359 354 351 346 340 339 338 337 341 345 344 343 341 344 343 333 352 49 42 71 55 346 340 354 356 229 211 218 209 205 227 235 240 227 226 223 199 177 204 218 227 228 240 219 265
359 355 352 346 341 340 338 338 342 342 339 338 343 350 352 350 91 47 4 3 1 351 339 311 309 223 233 241 216 225 240 234 230 234 238 246 230 230 238 237 210 222 224 232 266
359 355 351 348 344 344 338 332 337 337 335 335 338 351 354 27 45 357 355 6 8 358 355 326 215 178 221 233 237 258 251 252 257 237 238 245 243 225 232 234 229 245 252 253 269
358 354 351 347 345 342 336 322 328 328 325 328 332 346 357 45 92 20 343 329 319 320 336 330 218 231 230 215 255 249 259 272 252 250 247 251 248 250 246 237 240 251 262 264 265
358 353 350 347 343 340 329 314 317 319 320 319 328 335 338 263 35 14 345 329 310 305 291 265 228 242 263 246 229 271 280 268 258 256 251 252 259 246 245 244 241 249 254 261 262
356 352 349 346 340 338 322 308 314 314 318 309 317 317 293 215 15 360 342 333 313 307 291 275 246 202 212 249 253 272 280 279 250 248 241 246 263 239 242 246 244 230 240 248 250
354 351 348 344 337 333 318 309 313 309 307 285 317 303 259 213 340 0 339 329 312 308 301 269 245 223 228 247 280 269 263 262 249 224 238 204 251 243 233 223 239 246 251 253 255
353 351 346 342 331 330 319 316 320 318 293 280 313 275 266 239 307 336 340 324 312 302 295 237 201 216 173 229 258 244 259 255 278 245 216 213 249 248 243 222 233 235 238 243 252
351 349 345 340 330 332 332 334 320 316 300 319 293 280 236 306 304 311 317 304 306 279 236 183 204 224 217 207 242 245 239 242 253 23 224 231 241 239 228 254 232 230 233 235 240
350 347 345 338 334 342 345 346 345 321 308 266 267 262 282 296 293 309 306 291 280 229 255 205 226 237 238 229 246 258 256 252 224 228 313 251 256 250 256 262 253 240 236 234 237
351 346 346 339 333 346 341 347 335 307 297 290 278 261 262 276 299 315 311 243 259 250 270 246 250 257 259 241 239 244 249 250 256 265 263 274 270 267 251 250 246 244 242 236 239
352 347 347 344 339 328 339 328 332 316 289 301 288 264 283 328 309 296 323 293 261 264 264 262 259 266 239 234 233 235 237 241 242 242 261 271 280 256 241 238 245 238 239 240 231
353 348 346 355 16 343 348 332 329 310 299 293 336 17 62 334 293 303 293 238 248 276 275 270 260 249 250 238 223 236 231 237 242 234 244 230 271 213 218 218 225 231 229 232 226
353 347 345 338 351 348 330 323 332 96 303 349 318 310 331 322 300 316 318 272 282 271 262 263 278 271 252 236 223 244 232 224 231 250 249 235 251 254 254 214 217 218 221 225 223
352 348 351 355 345 329 328 335 109 251 270 335 330 332 333 333 304 296 287 287 269 272 248 260 273 263 237 249 230 241 238 222 227 230 248 230 225 237 222 215 216 219 215 220 220
351 351 17 14 351 344 331 340 301 232 342 344 328 331 323 307 327 332 313 301 280 280 297 310 240 224 226 246 202 179 178 187 207 213 244 205 221 236 203 236 254 222 206 211 214
351 350 18 8 346 341 339 249 261 29 344 322 321 315 295 346 326 318 305 312 248 219 291 306 292 200 191 215 203 197 193 200 201 199 224 220 228 231 232 246 269 305 215 203 208
352 15 6 349 344 347 345 8 335 360 344 323 319 301 314 311 320 314 319 299 269 164 252 281 252 245 249 256 221 183 211 220 303 233 221 211 238 264 247 233 241 242 227 204 203
354 53 9 353 355 355 58 341 307 343 339 328 292 291 315 321 323 342 310 292 303 220 225 302 279 249 55 210 244 233 173 183 217 223 225 205 235 223 195 218 227 235 227 203 196
357 22 355 353 7 40 60 314 300 317 4 322 290 293 298 315 262 320 269 294 298 40 304 246 234 219 245 209 202 186 207 210 167 255 227 229 236 212 218 232 213 229 231 200 192
356 346 348 4 43 26 1 317 302 306 333 289 270 271 287 309 280 299 246 234 254 268 259 206 278 253 258 277 194 220 219 206 216 206 243 277 301 295 205 204 216 227 216 163 177
346 312 350 24 54 356 330 305 279 321 330 307 282 274 301 301 312 271 287 266 292 271 232 227 241 286 252 160 203 198 212 225 239 268 238 253 359 5 207 188 217 213 188 148 154
357 340 357 50 90 33 355 328 330 325 308 314 283 286 290 297 285 275 280 302 300 273 251 226 210 226 255 316 89 253 193 208 219 229 226 241 310 351 6 177 192 180 157 148 151
18 42 3 336 358 339 316 296 331 348 307 309 281 274 317 288 298 263 298 301 300 303 295 216 247 221 246 260 253 258 233 220 205 222 228 269 261 346 329 319 227 152 147 148 143
25 2 341 293 303 320 346 343 316 327 275 296 256 306 313 286 279 293 306 302 276 316 275 234 278 290 265 261 234 220 240 236 222 220 242 233 262 312 309 284 177 149 146 140 133
10 359 316 290 319 310 346 331 301 320 279 248 285 303 303 312 309 295 288 280 256 271 277 264 285 293 280 296 161 220 220 204 195 206 216 217 192 14 345 50 93 122 131 130 129
Wind_Speed_850mb
46 43 43 43 43 42 38 33 27 24 23 27 33 35 36 37 40 26 17 7 5 8 14 14 16 15 16 25 24 25 19 33 42 36 28 19 24 38 22 35 29 28 69 14 17
49 47 48 47 47 41 30 24 20 20 22 28 35 33 35 34 20 24 24 22 11 22 25 26 16 9 11 13 25 26 28 44 15 30 25 37 23 18 19 33 47 39 36 28 10
55 54 54 51 48 35 27 22 20 22 26 33 36 35 40 29 11 9 17 19 19 24 25 20 15 5 18 11 25 27 42 33 19 38 36 40 29 25 28 32 29 39 36 18 15
61 60 60 57 49 32 23 19 21 25 31 35 33 33 31 15 6 10 15 18 14 17 20 13 7 12 9 24 20 27 35 48 22 46 21 33 27 22 48 47 24 39 33 32 30
66 66 64 59 46 31 20 19 23 29 37 36 28 29 22 5 4 5 8 16 17 15 13 6 10 11 17 11 25 41 34 35 38 63 40 45 41 32 36 36 45 49 52 46 41
70 71 68 61 43 28 14 20 26 33 38 31 26 29 15 2 14 18 18 20 19 20 14 12 12 16 13 15 24 18 24 37 58 45 28 44 49 43 30 52 52 50 54 54 46
72 72 70 64 42 25 15 22 29 37 36 24 19 26 15 8 14 26 27 25 21 22 23 22 14 20 11 14 22 17 24 30 37 35 39 31 46 62 51 46 32 36 37 38 40
75 72 71 64 38 27 20 27 37 36 33 15 22 23 15 12 13 35 34 29 20 23 25 22 17 24 23 19 16 17 19 24 18 36 25 39 65 18 46 63 74 73 69 56 52
81 75 73 61 34 33 20 28 32 35 12 14 25 13 14 6 15 33 38 30 27 26 21 15 10 14 10 21 22 21 29 27 21 24 34 42 42 28 41 37 57 59 63 64 59
85 79 75 56 27 28 16 32 25 23 13 23 11 9 10 13 27 39 41 29 27 17 6 15 13 13 14 18 30 28 32 27 22 6 31 44 44 22 16 10 41 39 44 47 52
84 83 76 46 24 15 17 23 20 8 18 26 30 22 41 20 24 45 37 23 19 12 16 12 15 27 40 40 38 35 34 35 20 17 17 27 32 36 41 44 39 32 45 37 39
84 83 71 30 20 10 17 13 14 21 26 43 44 41 38 32 23 49 11 8 13 26 13 12 34 38 36 38 40 40 39 42 36 34 24 30 27 28 27 34 51 47 40 43 47
84 81 62 19 15 12 19 14 24 31 12 20 7 9 3 11 40 32 11 17 20 30 30 31 34 14 23 35 38 41 43 38 35 28 35 32 46 40 34 37 45 52 51 45 43
84 80 52 14 6 17 13 24 36 23 7 8 7 2 5 44 13 20 33 14 8 24 21 26 25 23 32 36 40 42 34 33 32 27 29 16 17 17 32 34 35 44 50 54 40
84 72 38 6 14 18 28 38 20 3 10 19 6 7 46 10 39 5 9 9 29 30 15 15 19 26 25 38 33 34 25 33 33 29 28 32 16 29 19 38 41 40 57 57 43
79 58 27 15 21 31 38 26 2 4 7 11 15 35 45 50 7 13 13 17 16 13 18 41 29 20 29 12 25 16 19 30 28 24 23 36 31 23 27 38 44 43 45 51 43
83 40 19 23 32 31 31 6 5 4 17 11 21 31 47 12 24 18 25 23 13 9 5 22 14 11 26 15 7 27 19 10 15 16 20 27 25 37 21 21 21 36 41 44 43
84 33 13 33 40 32 17 1 4 6 9 26 25 42 10 20 17 20 21 29 14 14 9 8 4 14 20 25 11 35 28 10 14 17 29 24 22 34 52 41 25 15 43 44 47
75 13 13 38 36 20 6 3 5 8 15 21 39 10 9 15 17 22 28 19 7 9 6 7 11 7 14 15 26 19 26 28 11 21 19 22 45 29 24 33 27 34 28 46 56
65 7 23 42 26 14 5 5 5 11 18 16 11 7 27 36 24 17 18 7 8 10 13 5 14 8 7 5 23 20 21 12 10 11 22 23 50 29 29 39 40 29 27 42 50
43 7 28 42 16 19 6 7 10 13 18 11 12 15 20 20 7 24 13 21 6 5 6 7 11 5 4 12 24 17 24 15 13 12 17 19 18 36 32 11 40 39 38 27 40
30 5 34 40 13 7 6 16 14 12 20 10 15 19 19 25 14 17 14 13 4 8 8 12 8 11 18 2 16 30 29 29 13 23 12 15 6 4 42 29 18 33 42 18 36
27 12 20 33 8 9 13 8 9 12 23 9 11 9 20 14 15 17 26 10 17 12 9 3 7 9 7 8 15 10 24 33 21 9 24 16 2 15 10 24 22 21 20 28 48
18 9 12 20 11 6 13 8 14 25 21 15 23 21 19 18 28 17 34 19 14 24 37 19 11 21 22 5 4 7 23 40 37 15 19 17 24 18 14 17 13 11 24 45 60
20 6 6 10 8 18 9 7 14 20 11 19 10 16 33 14 36 18 34 44 28 28 4 4 10 20 35 36 25 18 8 31 35 35 16 6 25 22 26 19 8 24 48 58 63
11 12 11 13 17 17 5 5 15 23 10 16 14 42 44 22 34 52 38 44 11 4 3 4 6 4 14 26 28 20 22 20 34 32 21 19 21 11 29 36 23 43 57 63 64
20 13 5 9 9 8 5 12 19 31 16 35 38 36 41 36 56 77 68 53 23 9 5 5 5 4 6 14 15 13 30 28 22 26 20 15 5 15 11 19 17 43 53 57 69
Wind_Direction_850mb
3 356 351 346 342 339 336 333 336 340 346 348 343 340 339 333 332 350 11 29 92 331 4 344 283 239 219 214 202 193 229 236 225 223 218 200 211 212 219 219 211 226 242 245 319
359 354 351 346 340 339 338 337 341 345 344 343 341 344 343 333 352 49 42 71 55 346 340 354 356 229 211 218 209 205 227 235 240 227 226 223 199 177 204 218 227 228 240 219 265
359 355 352 346 341 340 338 338 342 342 339 338 343 350 352 350 91 47 4 3 1 351 339 311 309 223 233 241 216 225 240 234 230 234 238 246 230 230 238 237 210 222 224 232 266
359 355 351 348 344 344 338 332 337 337 335 335 338 351 354 27 45 357 355 6 8 358 355 326 215 178 221 233 237 258 251 252 257 237 238 245 243 225 232 234 229 245 252 253 269
358 354 351 347 345 342 336 322 328 328 325 328 332 346 357 45 92 20 343 329 319 320 336 330 218 231 230 215 255 249 259 272 252 250 247 251 248 250 246 237 240 251 262 264 265
358 353 350 347 343 340 329 314 317 319 320 319 328 335 338 263 35 14 345 329 310 305 291 265 228 242 263 246 229 271 280 268 258 256 251 252 259 246 245 244 241 249 254 261 262
356 352 349 346 340 338 322 308 314 314 318 309 317 317 293 215 15 360 342 333 313 307 291 275 246 202 212 249 253 272 280 279 250 248 241 246 263 239 242 246 244 230 240 248 250
354 351 348 344 337 333 318 309 313 309 307 285 317 303 259 213 340 0 339 329 312 308 301 269 245 223 228 247 280 269 263 262 249 224 238 204 251 243 233 223 239 246 251 253 255
353 351 346 342 331 330 319 316 320 318 293 280 313 275 266 239 307 336 340 324 312 302 295 237 201 216 173 229 258 244 259 255 278 245 216 213 249 248 243 222 233 235 238 243 252
351 349 345 340 330 332 332 334 320 316 300 319 293 280 236 306 304 311 317 304 306 279 236 183 204 224 217 207 242 245 239 242 253 23 224 231 241 239 228 254 232 230 233 235 240
350 347 345 338 334 342 345 346 345 321 308 266 267 262 282 296 293 309 306 291 280 229 255 205 226 237 238 229 246 258 256 252 224 228 313 251 256 250 256 262 253 240 236 234 237
351 346 346 339 333 346 341 347 335 307 297 290 278 261 262 276 299 315 311 243 259 250 270 246 250 257 259 241 239 244 249 250 256 265 263 274 270 267 251 250 246 244 242 236 239
352 347 347 344 339 328 339 328 332 316 289 301 288 264 283 328 309 296 323 293 261 264 264 262 259 266 239 234 233 235 237 241 242 242 261 271 280 256 241 238 245 238 239 240 231
353 348 346 355 16 343 348 332 329 310 299 293 336 17 62 334 293 303 293 238 248 276 275 270 260 249 250 238 223 236 231 237 242 234 244 230 271 213 218 218 225 231 229 232 226
353 347 345 338 351 348 330 323 332 96 303 349 318 310 331 322 300 316 318 272 282 271 262 263 278 271 252 236 223 244 232 224 231 250 249 235 251 254 254 214 217 218 221 225 223
352 348 351 355 345 329 328 335 109 251 270 335 330 332 333 333 304 296 287 287 269 272 248 260 273 263 237 249 230 241 238 222 227 230 248 230 225 237 222 215 216 219 215 220 220
351 351 17 14 351 344 331 340 301 232 342 344 328 331 323 307 327 332 313 301 280 280 297 310 240 224 226 246 202 179 178 187 207 213 244 205 221 236 203 236 254 222 206 211 214
351 350 18 8 346 341 339 249 261 29 344 322 321 315 295 346 326 318 305 312 248 219 291 306 292 200 191 215 203 197 193 200 201 199 224 220 228 231 232 246 269 305 215 203 208
352 15 6 349 344 347 345 8 335 360 344 323 319 301 314 311 320 314 319 299 269 164 252 281 252 245 249 256 221 183 211 220 303 233 221 211 238 264 247 233 241 242 227 204 203
354 53 9 353 355 355 58 341 307 343 339 328 292 291 315 321 323 342 310 292 303 220 225 302 279 249 55 210 244 233 173 183 217 223 225 205 235 223 195 218 227 235 227 203 196
357 22 355 353 7 40 60 314 300 317 4 322 290 293 298 315 262 320 269 294 298 40 304 246 234 219 245 209 202 186 207 210 167 255 227 229 236 212 218 232 213 229 231 200 192
356 346 348 4 43 26 1 317 302 306 333 289 270 271 287 309 280 299 246 234 254 268 259 206 278 253 258 277 194 220 219 206 216 206 243 277 301 295 205 204 216 227 216 163 177
346 312 350 24 54 356 330 305 279 321 330 307 282 274 301 301 312 271 287 266 292 271 232 227 241 286 252 160 203 198 212 225 239 268 238 253 359 5 207 188 217 213 188 148 154
357 340 357 50 90 33 355 328 330 325 308 314 283 286 290 297 285 275 280 302 300 273 251 226 210 226 255 316 89 253 193 208 219 229 226 241 310 351 6 177 192 180 157 148 151
18 42 3 336 358 339 316 296 331 348 307 309 281 274 317 288 298 263 298 301 300 303 295 216 247 221 246 260 253 258 233 220 205 222 228 269 261 346 329 319 227 152 147 148 143
25 2 341 293 303 320 346 343 316 327 275 296 256 306 313 286 279 293 306 302 276 316 275 234 278 290 265 261 234 220 240 236 222 220 242 233 262 312 309 284 177 149 146 140 133
10 359 316 290 319 310 346 331 301 320 279 248 285 303 303 312 309 295 288 280 256 271 277 264 285 293 280 296 161 220 220 204 195 206 216 217 192 14 345 50 93 122 131 130 129